www.pogodaiklimat.ru

Погода и климат >> Архив погоды >> Австралия >> Troughton Island


ПОГОДА в Troughton Island

  • Прогноз погоды в Troughton Island
  • Монитор погоды в Troughton Island
  • Климат города

АРХИВ ПОГОДЫ в Troughton Island

Время (UTC), дата Ветер
(напр.,м/с)
 
Видим.   Явления Облачность Т
(С)
Тd
(С)
f
(%)
Тe
(С)
Тes
(С)
Комфортность P
(гПа)
Po
(гПа)
Тmin
(С)
Tmax
(С)
R
(мм)
R24
(мм)
S
(см)
22 12.07 ЮВ 4 н/о н/о +21.0 +14.6 67 +24 +24 комфорт 1013.8 1012.9
00 13.07 ЮВ 5 н/о н/о +25.0 +15.3 55 +28 +28 жарко 1014.9 1014.0
01 13.07 ЮВ 5 н/о н/о +25.7 +16.5 57 +29 +29 душно 1014.9 1014.0 +20.1
03 13.07 ЮВ 5 н/о н/о +28.2 +10.9 34 +29 +29 жарко 1014.1 1013.2
04 13.07 ЮВ 6 н/о н/о +27.9 +8.7 30 +28 +28 жарко 1013.3 1012.4
06 13.07 ЮВ 3 н/о н/о +27.6 +8.0 29 +27 +27 жарко 1012.0 1011.1
07 13.07 СВ 2 н/о н/о +27.5 +9.8 33 +28 +28 жарко 1011.6 1010.7
09 13.07 СВ 5 н/о н/о +25.2 +15.2 54 +28 +28 жарко 1012.1 1011.2
10 13.07 В 4 н/о н/о +24.3 +16.3 61 +28 +28 душно 1012.8 1011.9
12 13.07 В 6 н/о н/о +24.0 +18.6 72 +29 +29 душно 1013.9 1013.0
13 13.07 В 6 н/о н/о +24.1 +19.4 75 +29 +29 душно 1014.2 1013.3 +29.1
15 13.07 В 6 н/о н/о +24.1 +19.0 73 +29 +29 душно 1014.4 1013.5
16 13.07 В 5 н/о н/о +23.9 +18.5 72 +28 +28 душно 1014.1 1013.2
18 13.07 В 4 н/о н/о +23.5 +18.2 72 +28 +28 душно 1013.2 1012.3
19 13.07 ЮВ 4 н/о н/о +22.3 +20.2 88 +29 +29 очень
душно
1012.7 1011.8
21 13.07 ЮВ 5 н/о н/о +21.6 +18.2 81 +26 +26 душно 1013.2 1012.3
22 13.07 Ю 5 н/о н/о +21.8 +16.5 72 +26 +26 душно 1013.6 1012.7
00 14.07 ЮВ 6 н/о н/о +24.8 +15.7 57 +28 +28 жарко 1014.9 1014.0
01 14.07 ЮВ 5 н/о н/о +25.5 +12.7 45 +27 +27 жарко 1015.0 1014.1 +21.2
03 14.07 В 6 н/о н/о +27.4 +11.4 37 +28 +28 жарко 1013.7 1012.8
04 14.07 В 5 н/о н/о +26.8 +10.5 36 +28 +28 жарко 1012.6 1011.7
06 14.07 В 4 н/о н/о +27.3 +14.3 45 +30 +30 душно 1011.0 1010.1
07 14.07 В 5 н/о н/о +27.3 +14.0 44 +29 +29 жарко 1010.6 1009.7
09 14.07 В 4 н/о н/о +25.6 +15.0 52 +28 +28 жарко 1011.4 1010.5
10 14.07 СВ 4 н/о н/о +24.1 +15.9 60 +27 +27 жарко 1011.8 1010.9
12 14.07 СВ 3 н/о н/о +23.2 +18.1 73 +29 +29 душно 1013.2 1012.3
13 14.07 СВ 4 н/о н/о +23.4 +18.7 75 +30 +30 очень
душно
1013.2 1012.3 +28.4
15 14.07 В 4 н/о н/о +24.2 +18.2 69 +29 +29 душно 1013.0 1012.1
16 14.07 В 3 н/о н/о +23.9 +18.5 72 +28 +28 душно 1012.8 1011.9
18 14.07 Ю 3 н/о н/о +21.6 +16.6 73 +25 +25 комфорт 1012.2 1011.3
19 14.07 Ю 4 н/о н/о +22.4 +16.9 71 +27 +27 душно 1012.0 1011.1
21 14.07 Ю 7 н/о н/о +22.9 +18.4 76 +29 +29 очень
душно
1012.3 1011.4
22 14.07 Ю 6 н/о н/о +23.0 +18.1 74 +29 +29 очень
душно
1013.1 1012.2
00 15.07 Ю 4 н/о н/о +25.4 +16.3 57 +29 +29 душно 1014.6 1013.7
01 15.07 Ю 3 н/о н/о +26.2 +16.4 55 +30 +30 душно 1014.8 1013.9 +21.2
03 15.07 Ю 4 н/о н/о +27.8 +17.9 55 +32 +32 душно 1014.1 1013.2
04 15.07 ЮЗ 4 н/о н/о +27.8 +16.4 50 +31 +31 душно 1013.3 1012.4
06 15.07 З 4 н/о н/о +27.8 +15.8 48 +31 +31 душно 1011.9 1011.0
07 15.07 ЮЗ 3 н/о н/о +27.5 +16.1 50 +31 +31 душно 1011.5 1010.6
09 15.07 З 4 н/о н/о +25.6 +18.3 64 +30 +30 душно 1011.8 1010.9
10 15.07 З 3 н/о н/о +24.1 +19.6 76 +29 +29 душно 1012.4 1011.5
12 15.07 штиль 0 н/о н/о +23.3 +18.6 75 +29 +29 душно 1013.5 1012.6
13 15.07 В 3 н/о н/о +23.2 +18.1 73 +29 +29 душно 1013.8 1012.9 +28.8
15 15.07 СВ 2 н/о н/о +22.6 +17.7 74 +28 +28 душно 1013.9 1013.0
16 15.07 СЗ 2 н/о н/о +22.7 +18.3 76 +28 +28 душно 1014.0 1013.1
18 15.07 штиль 0 н/о н/о +22.2 +17.6 75 +27 +27 душно 1013.3 1012.4
19 15.07 ЮЗ 2 н/о н/о +21.4 +17.4 78 +25 +25 комфорт 1013.2 1012.3
21 15.07 ЮЗ 3 н/о н/о +22.5 +19.1 81 +28 +28 душно 1013.3 1012.4
22 15.07 Ю 3 н/о н/о +22.6 +19.0 80 +28 +28 душно 1013.6 1012.7
00 16.07 ЮВ 3 н/о н/о +25.8 +17.4 60 +30 +30 душно 1014.6 1013.7
01 16.07 В 3 н/о н/о +26.7 +19.6 65 +32 +32 очень
душно
1014.8 1013.9 +21.5
03 16.07 ЮВ 4 н/о н/о +26.7 +18.8 62 +32 +32 очень
душно
1013.6 1012.7
04 16.07 ЮВ 3 н/о н/о +27.6 +17.7 55 +32 +32 очень
душно
1012.6 1011.7
06 16.07 ЮЗ 3 н/о н/о +28.5 +12.8 38 +30 +30 жарко 1011.1 1010.2
07 16.07 ЮВ 2 н/о н/о +27.0 +13.4 43 +29 +29 жарко 1010.8 1009.9
09 16.07 СВ 5 н/о н/о +26.0 +16.8 57 +30 +30 душно 1011.4 1010.5
10 16.07 СВ 5 н/о н/о +25.0 +17.7 64 +29 +29 душно 1012.0 1011.1
12 16.07 СВ 4 н/о н/о +24.4 +18.1 68 +29 +29 душно 1013.4 1012.5
13 16.07 СВ 3 н/о н/о +24.1 +19.0 73 +29 +29 душно 1013.9 1013.0 +29.2
15 16.07 В 2 н/о н/о +23.4 +18.5 74 +30 +30 очень
душно
1013.7 1012.8
16 16.07 В 2 н/о н/о +22.6 +17.9 75 +28 +28 душно 1013.5 1012.6
18 16.07 Ю 2 н/о н/о +22.0 +19.0 83 +27 +27 душно 1012.9 1012.0
19 16.07 Ю 3 н/о н/о +22.2 +20.3 89 +28 +28 душно 1012.5 1011.6
21 16.07 Ю 3 н/о н/о +21.1 +18.5 85 +25 +25 комфорт 1012.8 1011.9
22 16.07 ЮВ 3 н/о н/о +21.0 +18.6 86 +26 +26 душно 1013.4 1012.5
00 17.07 ЮВ 4 н/о н/о +25.1 +17.8 64 +29 +29 душно 1014.6 1013.7
01 17.07 ЮВ 4 н/о н/о +25.9 +17.3 59 +30 +30 душно 1014.7 1013.8 +20.8
03 17.07 ЮВ 5 н/о н/о +28.1 +13.2 40 +30 +30 жарко 1013.5 1012.6
04 17.07 В 4 н/о н/о +27.8 +14.1 43 +30 +30 жарко 1012.8 1011.9
06 17.07 В 6 н/о н/о +28.1 +15.4 46 +31 +31 душно 1011.3 1010.4
07 17.07 В 7 н/о н/о +27.9 +15.9 48 +31 +31 душно 1010.7 1009.8
09 17.07 СВ 8 н/о н/о +26.4 +16.1 53 +30 +30 душно 1011.4 1010.5
10 17.07 В 8 н/о н/о +25.9 +15.9 54 +29 +29 душно 1011.8 1010.9
12 17.07 В 7 н/о н/о +25.2 +17.1 61 +29 +29 душно 1013.0 1012.1
13 17.07 В 7 н/о н/о +25.1 +17.3 62 +29 +29 душно 1013.2 1012.3 +28.9
15 17.07 СВ 5 н/о н/о +24.4 +19.7 75 +30 +30 очень
душно
1013.0 1012.1
16 17.07 СВ 5 н/о н/о +24.4 +20.3 78 +30 +30 очень
душно
1012.8 1011.9
18 17.07 В 4 н/о н/о +24.1 +21.2 84 +30 +30 очень
душно
1012.1 1011.2
19 17.07 В 4 н/о н/о +23.5 +21.0 86 +30 +30 очень
душно
1012.1 1011.2
21 17.07 ЮВ 4 н/о н/о +21.5 +17.9 80 +26 +26 душно 1012.5 1011.6
22 17.07 ЮВ 4 н/о н/о +21.8 +16.5 72 +26 +26 душно 1013.0 1012.1
00 18.07 ЮВ 5 н/о н/о +26.1 +13.6 46 +28 +28 жарко 1014.0 1013.1
01 18.07 ЮВ 4 н/о н/о +26.7 +14.1 46 +29 +29 жарко 1014.2 1013.3 +21.5
03 18.07 В 5 н/о н/о +27.9 +8.7 30 +28 +28 жарко 1013.5 1012.6
04 18.07 В 4 н/о н/о +27.7 +12.9 40 +29 +29 жарко 1013.0 1012.1
06 18.07 В 4 н/о н/о +27.6 +18.3 57 +32 +32 очень
душно
1012.1 1011.2
07 18.07 СВ 4 н/о н/о +27.4 +18.7 59 +32 +32 очень
душно
1012.2 1011.3
09 18.07 СВ 4 н/о н/о +25.8 +19.0 66 +31 +31 очень
душно
1012.8 1011.9
10 18.07 СВ 6 н/о н/о +24.9 +20.4 76 +31 +31 очень
душно
1012.8 1011.9
12 18.07 В 5 н/о н/о +24.4 +20.7 80 +30 +30 очень
душно
1014.1 1013.2
13 18.07 В 5 н/о н/о +24.3 +20.4 79 +30 +30 очень
душно
1014.4 1013.5 +28.7
15 18.07 В 4 н/о н/о +24.1 +20.8 82 +30 +30 очень
душно
1014.3 1013.4
16 18.07 ЮВ 3 н/о н/о +23.6 +20.7 84 +29 +29 душно 1014.3 1013.4
18 18.07 Ю 3 н/о н/о +21.8 +19.4 86 +27 +27 душно 1013.6 1012.7
19 18.07 Ю 4 н/о н/о +22.1 +19.3 84 +28 +28 душно 1013.6 1012.7
21 18.07 Ю 4 н/о н/о +22.8 +18.8 78 +29 +29 очень
душно
1013.7 1012.8
22 18.07 ЮВ 3 н/о н/о +21.6 +18.4 82 +26 +26 душно 1014.3 1013.4
00 19.07 ЮВ 4 н/о н/о +25.5 +17.2 60 +29 +29 душно 1015.4 1014.5
01 19.07 ЮВ 4 н/о н/о +26.1 +18.0 61 +31 +31 очень
душно
1015.7 1014.8 +21.6
03 19.07 В 3 н/о н/о +27.6 +16.2 50 +31 +31 душно 1014.6 1013.7
04 19.07 ЮВ 4 н/о н/о +28.1 +14.7 44 +31 +31 душно 1013.9 1013.0
06 19.07 СВ 3 н/о н/о +28.9 +12.8 37 +30 +30 жарко 1013.1 1012.2
07 19.07 В 3 н/о н/о +28.1 +16.1 48 +31 +31 душно 1012.8 1011.9
09 19.07 СВ 8 н/о н/о +26.6 +16.5 54 +30 +30 душно 1012.8 1011.9
10 19.07 В 7 н/о н/о +26.2 +16.7 56 +30 +30 душно 1013.1 1012.2
12 19.07 В 6 н/о н/о +25.7 +17.4 60 +30 +30 душно 1014.4 1013.5
13 19.07 В 5 н/о н/о +25.2 +18.2 65 +30 +30 душно 1014.9 1014.0 +29.4
15 19.07 ЮВ 4 н/о н/о +23.5 +18.8 75 +28 +28 душно 1015.0 1014.1
16 19.07 ЮВ 5 н/о н/о +23.7 +17.2 67 +28 +28 душно 1014.6 1013.7
18 19.07 ЮВ 4 н/о н/о +23.7 +17.0 66 +27 +27 жарко 1013.8 1012.9
19 19.07 ЮВ 4 н/о н/о +23.4 +18.1 72 +29 +29 душно 1013.6 1012.7
21 19.07 Ю 4 н/о н/о +22.9 +15.2 62 +27 +27 душно 1013.8 1012.9
22 19.07 Ю 4 н/о н/о +23.1 +15.9 64 +28 +28 душно 1014.3 1013.4

 

Местоположение метеостанции Troughton Island (Западная Австралия, Австралия): широта -13.75 долгота 126.15 высота над уровнем моря 8 м.

В архиве по умолчанию представлена погода в Troughton Island за последнюю неделю. Архивные данные за месяц целиком и за предыдущие месяцы, начиная с января 2011 года, Вы можете получить, выбрав интересующий диапазон дат из раскрывающегося списка и нажав кнопку "Ввод!".


*Определитесь, кто Вы:
робот инопланетянин человек

Внимание! Время в таблицах - всемирное. Для получения местного времени необходимо прибавить поправку, которая в Troughton Island равна 8 ч.

Смотрите также архив погоды в соседних городах и на ближайших метеорологических станциях:

Погода в Truscott (Западная Австралия, Австралия) (44 км)
Погода в Kalumburu (Западная Австралия, Австралия) (82 км)
Погода в Browse Island (Западная Австралия, Австралия) (284 км)
Погода в Wyndham Aero (Западная Австралия, Австралия) (290 км)
Погода в Kununurra (Западная Австралия, Австралия) (356 км)
Погода в Port Keats Aero (Северная территория, Австралия) (369 км)
Погода в Adele Island (Западная Австралия, Австралия) (378 км)
Погода в Argyle Aero (Западная Австралия, Австралия) (404 км)
Погода в Bathurst Island (Северная территория, Австралия) (473 км)
Погода в Dum In Mirrie (Северная территория, Австралия) (474 км)

Пояснения к столбцам:

Ветер - указаны скорость ветра в м/с - средняя за 10 мин, порывы в срок и между сроками (в фигурных скобках) и направление, откуда дует ветер: С - северный, СВ - северо-восточный, В - восточный, ЮВ - юго-восточный, Ю - южный, ЮЗ - юго-западный, З - западный, СЗ - северо-западный.
Видимость - горизонтальная дальность видимости в метрах или километрах. При видимости от 1 до 10 км при отсутствии осадков обычно наблюдается дымка, при ухудшении видимости до 1 км и менее - туман. В сухую погоду видимость может ухудшаться дымом, пылью или мглою.
Явления - указаны атмосферные явления, наблюдавшиеся в срок или в последний час перед сроком; фигурными скобками обозначены явления, наблюдавшиеся между сроками (за 1-3 часа до срока); квадратными скобками обозначены град или гололедные отложения с указанием их диаметра в мм.
Облачность - указаны через наклонную черту общая и нижняя облачность в баллах и высота нижней границы облаков в метрах; квадратными скобками обозначены формы облаков: Ci - перистые, Cs - перисто-слоистые, Cc - перисто-кучевые, Ac - высококучевые, As - высокослоистые, Sc - слоисто-кучевые, Ns - слоисто-дождевые, Cu - кучевые, Cb - кучево-дождевые. Подробнее классификацию облаков см. в Атласе облаков (PDF).
T - Температура воздуха - температура, измеренная на высоте 2 м над землей.
Td - Температура точки росы - температура, при понижении до которой содержащийся в воздухе водяной пар достигнет насыщения.
f - Относительная влажность воздуха - влажноcть воздуха, измеренная на высоте 2 м над землей.
Te - Эффективная температура - температура, которую ощущает одетый по сезону человек в тени. Характеристика душности погоды. При расчете учитывается влияние влажности воздуха и скорости ветра на теплоощущения человека.
Tes - Эффективная температура на солнце - температура, которую ощущает человек, с поправкой на солнечный нагрев. Характеристика знойности погоды. Зависит от высоты солнца над горизонтом, облачности и скорости ветра. Ночью, в пасмурную погоду, а также при ветре 12 м/с и более поправка равна нулю.
P - Атмосферное давление - приведенное к уровню моря атмосферное давление.
Po - Атмосферное давление - измеренное на уровне метеостанции атмосферное давление.
Tmin - Минимальная температура - минимум температуры воздуха на высоте 2 м над землей.
Tmax - Максимальная температура - максимум температуры воздуха на высоте 2 м над землей.
R - Количество осадков - Количество выпавших осадков за период времени, мм. При наведении курсора мыши на число - период времени, за который выпало указанное количество осадков.
R24 - Количество осадков - Количество выпавших осадков за 24 часа, мм.
S - Снежный покров - Высота снежного покрова, см. При наведении курсора мыши на число - состояние снежного покрова и степень покрытия местности в баллах.